TimePST,TemperatureF,Dew PointF,Humidity,Sea Level PressureIn,VisibilityMPH,Wind Direction,Wind SpeedMPH,Gust SpeedMPH,PrecipitationIn,Events,Conditions,WindDirDegrees,DateUTC
12:03 AM,41.0,41.0,100,30.20,0.2,Calm,Calm,-,N/A,Fog,Fog,10,2012-11-24 08:03:00
12:08 AM,41.0,41.0,100,30.19,0.5,Calm,Calm,-,N/A,Fog,Fog,0,2012-11-24 08:08:00
12:13 AM,41.0,41.0,100,30.19,3.0,Calm,Calm,-,N/A,,Clear,0,2012-11-24 08:13:00
12:43 AM,41.0,41.0,100,30.19,2.5,North,2.3,-,N/A,,Clear,360,2012-11-24 08:43:00
12:48 AM,41.0,41.0,100,30.19,3.0,North,2.3,-,N/A,,Clear,350,2012-11-24 08:48:00
12:58 AM,40.1,39.9,99,30.21,7.0,North,1.2,-,N/A,,Clear,350,2012-11-24 08:58:00
1:58 AM,42.6,42.4,99,30.20,9.0,Calm,Calm,-,N/A,,Clear,0,2012-11-24 09:58:00
2:28 AM,41.0,41.0,100,30.18,2.0,North,1.2,-,N/A,,Clear,350,2012-11-24 10:28:00
2:43 AM,41.0,41.0,100,30.18,2.5,North,2.3,-,N/A,,Clear,350,2012-11-24 10:43:00
2:48 AM,41.0,41.0,100,30.18,3.0,NNW,1.2,-,N/A,,Clear,340,2012-11-24 10:48:00
2:58 AM,39.9,39.6,99,30.20,10.0,Calm,Calm,-,N/A,,Clear,0,2012-11-24 10:58:00
3:18 AM,39.2,39.2,100,30.17,2.5,WNW,1.2,-,N/A,,Clear,300,2012-11-24 11:18:00
3:33 AM,39.2,39.2,100,30.17,3.0,NNW,1.2,-,N/A,,Clear,340,2012-11-24 11:33:00
3:58 AM,38.7,38.5,99,30.19,10.0,NNE,1.2,-,N/A,,Clear,20,2012-11-24 11:58:00
4:58 AM,39.4,39.0,99,30.19,10.0,North,4.6,-,N/A,,Clear,10,2012-11-24 12:58:00
5:13 AM,39.2,39.2,100,30.17,1.8,North,4.6,-,N/A,,Clear,350,2012-11-24 13:13:00
5:23 AM,39.2,39.2,100,30.17,2.0,Calm,Calm,-,N/A,,Clear,360,2012-11-24 13:23:00
5:28 AM,39.2,39.2,100,30.17,2.5,Calm,Calm,-,N/A,,Clear,0,2012-11-24 13:28:00
5:33 AM,39.2,39.2,100,30.17,4.0,Calm,Calm,-,N/A,,Clear,0,2012-11-24 13:33:00
5:58 AM,39.4,39.2,99,30.19,8.0,East,3.5,-,N/A,,Clear,90,2012-11-24 13:58:00
6:43 AM,39.2,37.4,93,30.17,2.5,East,3.5,-,N/A,,Clear,100,2012-11-24 14:43:00
6:48 AM,37.4,37.4,100,30.17,1.5,East,3.5,-,N/A,,Clear,80,2012-11-24 14:48:00
6:53 AM,37.4,37.4,100,30.17,1.8,East,2.3,-,N/A,,Clear,80,2012-11-24 14:53:00
6:58 AM,37.4,37.4,100,30.20,3.0,East,2.3,-,N/A,,Clear,80,2012-11-24 14:58:00
7:03 AM,37.4,37.4,100,30.18,1.5,East,2.3,-,N/A,,Clear,80,2012-11-24 15:03:00
7:08 AM,37.4,37.4,100,30.18,0.8,East,2.3,-,N/A,,Clear,90,2012-11-24 15:08:00
7:13 AM,39.2,39.2,100,30.18,1.2,East,2.3,-,N/A,,Clear,80,2012-11-24 15:13:00
7:18 AM,39.2,39.2,100,30.18,6.0,ENE,1.2,-,N/A,,Clear,70,2012-11-24 15:18:00
7:38 AM,39.2,39.2,100,30.18,2.5,NW,2.3,-,N/A,,Clear,320,2012-11-24 15:38:00
7:53 AM,42.8,42.8,100,30.18,3.0,Calm,Calm,-,N/A,,Clear,0,2012-11-24 15:53:00
7:58 AM,42.3,42.3,100,30.20,3.0,Calm,Calm,-,N/A,,Clear,0,2012-11-24 15:58:00
8:58 AM,48.6,48.2,99,30.21,10.0,Calm,Calm,-,N/A,,Clear,40,2012-11-24 16:58:00
9:58 AM,55.4,49.3,80,30.21,10.0,NE,6.9,-,N/A,,Clear,40,2012-11-24 17:58:00
10:58 AM,58.3,48.9,71,30.19,10.0,NE,4.6,-,N/A,,Clear,50,2012-11-24 18:58:00
11:58 AM,60.4,49.1,66,30.16,3.0,ENE,5.8,-,N/A,,Haze,60,2012-11-24 19:58:00
12:03 PM,60.8,50.0,68,30.13,2.0,ENE,5.8,-,N/A,,Haze,60,2012-11-24 20:03:00
12:08 PM,60.8,50.0,68,30.13,2.5,ENE,2.3,-,N/A,,Haze,60,2012-11-24 20:08:00
12:13 PM,60.8,50.0,68,30.13,3.0,ENE,4.6,-,N/A,,Haze,70,2012-11-24 20:13:00
12:18 PM,60.8,50.0,68,30.13,2.5,Variable,5.8,-,N/A,,Haze,0,2012-11-24 20:18:00
12:53 PM,62.6,50.0,63,30.11,2.0,Variable,2.3,-,N/A,,Haze,0,2012-11-24 20:53:00
12:58 PM,62.8,49.5,62,30.12,2.0,NNE,3.5,-,N/A,,Haze,30,2012-11-24 20:58:00
1:03 PM,62.6,50.0,63,30.10,3.0,Variable,3.5,-,N/A,,Haze,0,2012-11-24 21:03:00
1:23 PM,64.4,48.2,56,30.09,2.5,Variable,2.3,-,N/A,,Haze,0,2012-11-24 21:23:00
1:38 PM,64.4,50.0,59,30.08,1.2,NE,3.5,-,N/A,,Haze,50,2012-11-24 21:38:00
1:48 PM,64.4,50.0,59,30.08,2.0,NNE,3.5,-,N/A,,Haze,20,2012-11-24 21:48:00
1:53 PM,64.4,50.0,59,30.08,2.5,Variable,2.3,-,N/A,,Haze,0,2012-11-24 21:53:00
1:58 PM,64.4,48.2,56,30.10,3.0,NE,4.6,-,N/A,,Haze,50,2012-11-24 21:58:00
2:48 PM,66.2,48.2,52,30.06,2.0,Variable,2.3,-,N/A,,Haze,0,2012-11-24 22:48:00
2:53 PM,66.2,48.2,52,30.06,3.0,Variable,2.3,-,N/A,,Haze,0,2012-11-24 22:53:00
2:58 PM,66.2,47.5,51,30.08,5.0,Variable,1.2,-,N/A,,Haze,0,2012-11-24 22:58:00
3:58 PM,65.3,47.8,53,30.07,10.0,Calm,Calm,-,N/A,,Clear,0,2012-11-24 23:58:00
4:58 PM,60.1,47.7,64,30.05,10.0,West,4.6,-,N/A,,Clear,260,2012-11-25 00:58:00
5:58 PM,51.4,48.2,89,30.05,10.0,West,5.8,-,N/A,,Clear,270,2012-11-25 01:58:00
6:58 PM,51.4,50.0,95,30.05,10.0,East,2.3,-,N/A,,Clear,80,2012-11-25 02:58:00
7:58 PM,48.0,47.7,99,30.05,10.0,NE,1.2,-,N/A,,Clear,50,2012-11-25 03:58:00
8:58 PM,45.7,45.5,99,30.04,10.0,Calm,Calm,-,N/A,,Clear,0,2012-11-25 04:58:00
9:58 PM,41.9,41.9,100,30.05,10.0,WSW,2.3,-,N/A,,Clear,240,2012-11-25 05:58:00
10:48 PM,42.8,42.8,100,30.02,0.5,SSW,2.3,-,N/A,Fog,Fog,200,2012-11-25 06:48:00
10:53 PM,41.0,41.0,100,30.02,0.2,SSW,1.2,-,N/A,Fog,Fog,200,2012-11-25 06:53:00
10:58 PM,41.4,41.0,99,30.04,0.2,SSW,1.2,-,N/A,Fog,Fog,200,2012-11-25 06:58:00
11:23 PM,42.8,42.8,100,30.02,0.5,Calm,Calm,-,N/A,Fog,Fog,0,2012-11-25 07:23:00
11:28 PM,41.0,41.0,100,30.02,2.0,Calm,Calm,-,N/A,,Clear,0,2012-11-25 07:28:00
11:33 PM,39.2,39.2,100,30.02,5.0,Calm,Calm,-,N/A,,Clear,0,2012-11-25 07:33:00
11:56 PM,39.2,39.2,100,30.02,10.0,Calm,Calm,-,N/A,,Clear,0,2012-11-25 07:56:00
11:58 PM,39.2,39.2,100,30.04,10.0,Calm,Calm,-,N/A,,Clear,0,2012-11-25 07:58:00